Simultaneous Nadir Overpasses (SNOs) Predictions

Prediction of SNOs between TERRA and METOP-C Satellite Orbit:

Table of predicted SNOs for the next 14.0 days since TLE Epoch: 11/11/2023
Index Date (TERRA) Time (TERRA) Lat,Lon (TERRA) SZA (TERRA ) Date (METOP-C) Time (METOP-C) Lat,Lon (METOP-C) SZA (METOP-C ) Distance(km) Time Diff (sec)
1 11/12/2023 03:10:12 -80.23, -22.71 81.07 11/12/2023 03:09:14 -80.23, -22.63 81.08 1.62 58
2 11/12/2023 03:59:30 80.33, 145.82 99.11 11/12/2023 03:59:50 80.33, 145.82 99.11 0.27 20
3 11/14/2023 18:31:13 80.17, -73.54 99.53 11/14/2023 18:30:16 80.16, -73.69 99.50 2.92 57
4 11/14/2023 19:20:32 -80.30, 95.24 80.26 11/14/2023 19:20:53 -80.30, 95.23 80.25 0.32 21
5 11/17/2023 09:52:13 -80.18,-123.74 79.81 11/17/2023 09:51:17 -80.18,-123.72 79.82 0.43 56
6 11/17/2023 10:41:31 80.28, 44.78 100.36 11/17/2023 10:41:53 80.28, 44.72 100.36 1.27 22
7 11/20/2023 01:13:10 80.20,-173.81 100.84 11/20/2023 01:12:15 80.21,-173.68 100.84 2.42 55
8 11/20/2023 02:02:30 -80.29, -5.34 79.01 11/20/2023 02:02:54 -80.29, -5.40 79.01 1.22 24
9 11/22/2023 16:34:09 -80.16, 135.55 78.66 11/22/2023 16:33:17 -80.16, 135.51 78.68 0.92 52



Historial Predications of SNOs between TERRA and METOP-C
